Regional Weather Roundup
Issued by NWS Wakefield, VA

Home | Current Version | Previous Version | Graphics & Text | Print | Product List | Glossary On
Versions: 1 2 3 4 5 6 7 8 9 10 11 12 13 14 15 16 17 18 19 20 21 22 23 24 25 26 27 28
000
ASUS41 KAKQ 182015
RWRAKQ

REGIONAL WEATHER ROUNDUP
NATIONAL WEATHER SERVICE WAKEFIELD VA
300 PM EST THU JAN 18 2018

Note: "fair" indicates few or no clouds below 12,000 feet with no
significant weather and/or obstructions to visibility. * = Denotes
station may not report precipitation (e.g., rain,snow,etc.),
thunder or fog.

VAZ042-051-052>054-056-182100-
NORTHERN VIRGINIA

CITY           SKY/WX    TMP DP  RH WIND       PRES   REMARKS
WASH NATIONAL  FAIR      46   2  16 W16G22    30.04F
DULLES         FAIR      44   4  19 W12G17    30.03F
FORT BELVOIR   FAIR      46   3  17 NW13      30.04F
QUANTICO       NOT AVBL
FREDERICKSBRG* FAIR      44  12  27 SW9       30.06F
STAFFORD*      FAIR      44   6  20 W6        30.10F
WARRENTON      FAIR      46  -3  13 SW6       30.04F
CULPEPER*      FAIR      46   2  16 SW8       30.06F
MANASSAS*      FAIR      46   5  18 NW13G18   30.05F
LEESBURG*      FAIR      45  10  24 NW10G22   30.04F
WINCHESTER     FAIR      43   3  19 NW8       30.03F
FRONT ROYAL*   FAIR      43   9  24 SE5       30.02F
LURAY*         FAIR      41  10  28 S8        30.04F
$$

VAZ048-049-060>072-079>083-182100-
CENTRAL AND SOUTH CENTRAL VIRGINIA

CITY           SKY/WX    TMP DP  RH WIND       PRES   REMARKS
RICHMOND       FAIR      42  13  30 W12       30.10S
CHESTERFIELD*  NOT AVBL
PETERSBURG*    FAIR      39  16  38 SW9       30.13S
HANOVER        FAIR      41  11  29 W12       30.10F
TAPPAHANNOCK*  FAIR      41  11  30 SW9       30.09F
QUINTON*       FAIR      41  11  29 SW6       30.09F
CHARLOTTSVILLE FAIR      44   6  21 SW7       30.05F
GORDONSVILLE*  FAIR      44   7  22 SW8       30.05F
ORANGE*        FAIR      43   9  24 SW6       30.05F
LOUISA*        FAIR      42   9  25 SW5       30.10F
BUMPASS*       FAIR      40   7  25 SW10      30.07F
FARMVILLE*     FAIR      40  14  34 SW7       30.11F
CREWE*         FAIR      37  15  40 W6G16     30.13S
FORT PICKETT*  FAIR      36  14  41 W15       30.13S
CHASE CITY*    FAIR      37  13  38 W10G17    30.16F
CLARKSVILLE*   FAIR      36  16  44 W7        30.17F
SOUTH HILL*    FAIR      33  21  60 W7G17     30.22S
LAWRENCEVILLE* FAIR      36  19  50 SW10      30.15S
EMPORIA*       FAIR      34  21  60 SW7G16    30.17S
$$

VAZ088>098-182100-
SOUTHEAST VIRGINIA

CITY           SKY/WX    TMP DP  RH WIND       PRES   REMARKS
NORFOLK        FAIR      36  15  42 W7        30.11F
VIRGINIA BEACH FAIR      49  15  25 W9        30.10F
NORFOLK NAVAL  FAIR      36  16  44 W8        30.12F
WEST POINT*    FAIR      40  10  29 W10       30.11F
SALUDA*        FAIR      37  11  33 W6        30.08F
NEWPORT NEWS   FAIR      35  17  47 SW13      30.11F
LANGLEY AFB    FAIR      36  16  45 SW10      30.10F
FORT EUSTIS    FAIR      37  16  42 W8        30.09F
WILLIAMSBURG*  FAIR      41  18  38 W12       30.12S
HR EXEC AP*    FAIR      37  17  44 SW5       30.13
FRANKLIN*      FAIR      35  18  49 SW7       30.14F
US460-WAKEFLD  FAIR      39  19  44 W8        30.12
$$

VAZ020-022-025-037-045-182100-
WEST CENTRAL AND SOUTHWEST VIRGINIA

CITY           SKY/WX    TMP DP  RH WIND       PRES   REMARKS
STAUNTON*      FAIR      40  11  29 SW8       30.07F
WAYNESBORO*    FAIR      37  10  33 SW10G18   30.06F
HOT SPRINGS VA FAIR      28   0  29 W24G32    30.01F WCI  14
LYNCHBURG      FAIR      36   7  29 SW9G16    30.12F
DANVILLE       FAIR      38  11  32 W7        30.19F
SOUTH BOSTON*  FAIR      37  12  35 SW6       30.17F
MARTINSVILLE   FAIR      40   8  26 SW6       30.21S
ROANOKE        FAIR      37  11  34 W14       30.16F
BLACKSBURG     FAIR      32  11  41 W9G24     30.18S
DUBLIN*        FAIR      34   9  35 W15G22    30.19S WCI  24
MARION*        FAIR      25  10  53 W23G30    30.23S WCI   9
HILLSVILLE*    FAIR      28   4  36 NW15      30.15F WCI  16
RICHLANDS*     FAIR      25   9  51 SW7       30.24F
WISE*          FAIR      30  12  47 SW8       30.25F
ABINGDON*      FAIR      27  12  53 SW10      30.31F WCI  17
$$

MDZ021>025-VAZ099-100-182100-
SOUTHERN MARYLAND AND THE DELMARVA PENINSULA

CITY           SKY/WX    TMP DP  RH WIND       PRES   REMARKS
PATUXENT RIVER SUNNY     39   8  27 W18G24    30.05F
BAY BRIDGE APT NOT AVBL
LEONARDTOWN    FAIR      37   7  28 W10G21    30.06F
DOVER          FAIR      36  19  49 W13       30.00F
GEORGETOWN     FAIR      37  10  32 NW14      30.02F
EASTON         SUNNY     39  10  30 NW8       30.07F
CAMBRIDGE      SUNNY     39   9  28 VRB6      30.04F
SALISBURY      FAIR      38  10  31 NW12      30.03F
OCEAN CITY     FAIR      37  12  35 NW9G20    30.03S
WALLOPS ISLAND FAIR      35  16  45 W13       30.07R
ACCOMACK*      FAIR      35  15  43 W14       30.08F
$$

NCZ012>017-030>032-182100-
NORTH CENTRAL AND EASTERN NORTH CAROLINA

CITY           SKY/WX    TMP DP  RH WIND       PRES   REMARKS
ROANOKE RAPIDS FAIR      34  23  64 SW15      30.19S WCI  24
RALEIGH        FAIR      33  19  56 W9        30.23S
ELIZABETH CITY FAIR      34  22  61 W10       30.15F
AHOSKIE*       FAIR      34  21  58 SW3       30.17F
EDENTON*       FAIR      39  18  43 W9        30.17F
CURRITUCK*     FAIR      35  16  46 SW10      30.14F
KILL DEVIL HLS FAIR      32  19  57 W9        30.13F
MANTEO         FAIR      33  18  55 W9G17     30.16F
CAPE HATTERAS  FAIR      35  21  56 NW9G20    30.18S
TARBORO*       NOT AVBL
GOLDSBORO      FAIR      36  17  45 W10       30.22S
WASHINGTON     FAIR      38  15  37 CALM      30.20F
GREENVILLE     FAIR      37  18  44 SW9       30.21F
NEW BERN       FAIR      39  14  36 W10       30.22F
WILMINGTON     FAIR      38  15  39 W14       30.26F
$$

VAZ048-182100-
ELSEWHERE

CITY           SKY/WX    TMP DP  RH WIND       PRES   REMARKS
HARRISBURG PA  FAIR      35  16  45 W7        29.99F
BALTIMORE      FAIR      41  11  29 W15G23    30.01F
ANNAPOLIS      FAIR      43   9  24 W12G23    30.02F
ANDREWS AFB    FAIR      43   6  21 W12       30.02S
PHILADELPHIA   FAIR      35   8  32 NW12      29.99F
HENDERSON NC   FAIR      33  11  40 W7        30.19S
GREENSBORO     FAIR      35  11  36 W13       30.21F
ROCKY MOUNT    NOT AVBL
$$

VAZ100-182100-
MARINE

STATION/POSITION TIME  TEMP    WIND        PRES    WAVE   SWELL
                       AIR SEA DIR/SP/G            HT/PER HT/PER
                 (UTC) (F)     (DEG/KT/KT) (MB)    (FT/S) (FT/S)
BRANDYWINE LGT   1936   32     310/ 12/ 16 1016.6F
CAPE MAY NJ      1948   31 31  310/ 12/ 15 1015.9F
LEWES DE         1936   34 32  310/ 16/ 19 1016.2F
15NM E FENWICK I 1950   35 40  290/ 17/ 21 1016.4F   5/ 5   2/10
OCEAN-CITY-INLET 1948   35 35  320/ 11/ 16 1017.0F
WACHAPREAGUE VA  1948   35 33  250/  7/ 10 1018.4F
THOMAS POINT MD  2000   40 32  300/ 15/ 19   N/A
GOOSES REEF MD   2000   37 33  240/  8/ 10 1017.7    1/ 2
COVE POINT MD    1948   37     280/  8/ 13 1018.1F
SOLOMONS ISLAND  1948   39 34  270/  9/ 14 1017.4F
BISHOPS HEAD MD  1948   33 31  260/  7/  8 1018.1F
PINEY POINT MD   1948          330/ 10/ 11   N/A
POTOMAC MD       2000   33 34  360/  8/  8 1017.6    1/ 3
CAMBRIDGE MD     1948   37 32              1017.9F
LEWISETTA VA     1948   37 32  270/ 11/ 13 1018.2F
RAPPAHANNOCK LGT 1948          250/  7/  8 1019.6F
STINGRAY PT      2000   36 33  280/  8/ 10 1022.0    1/ 3
YORK RVR RNG VA  1948   35     280/ 10/ 11 1019.8F
YORKTOWN VA      1948   36 34  240/ 10/ 11 1018.9F
DOMINION TERM VA 1948   36     240/  9/ 12 1019.8F
KIPTOPEKE VA     1948      34  290/ 11/ 15   N/A
CAPE HENRY VA    1948   34     270/ 11/ 14   N/A
WILLOUBY STN VA  1942          260/ 11/ 12 1019.5F
S CRANEY ISL VA  1948   36     260/  7/ 12 1019.7F
CAPE HENRY BUOY  2000      40                N/A     5/ 7   2/11
1ST LANDING BUOY 2000   33 35  280/ 14/ 16 1019.4    2/ 3
CAPE CHARLES BUO 1921      37                N/A     4/11   2/11
64NM E OF VA BCH 1950   36 57  300/ 23/ 29 1018.3F   9/ 7   3/11
DUCK PIER NC     1948   33 38  260/ 15/ 19 1020.0F
44100 DUCK FRF   1845      43                N/A     7/ 8   2/11
44056 DUCK FRF   2000      40                N/A     5/ 7   2/11
OREGON INLET NC  1942   33 38  280/ 13/ 18 1020.6F
HATTERAS NC      1948   34 40  290/ 16/ 19 1021.6R
DIAMOND SHLS NC  2000   35     300/ 19/ 23 1022.0
CAPE LOOKOUT NC  2000          270/ 13/ 17 1023.4F
$$




USA.gov is the U.S. government's official web portal to all federal, state and local government web resources and services.